Date,TemperatureHighF,TemperatureAvgF,TemperatureLowF,DewpointHighF,DewpointAvgF,DewpointLowF,HumidityHigh,HumidityAvg,HumidityLow,PressureMaxIn,PressureMinIn,WindSpeedMaxMPH,WindSpeedAvgMPH,GustSpeedMaxMPH,PrecipitationSumIn
2013-1-1,47.7,45.2,41.3,43.0,33.3,18.0,91,66,38,30.00,29.94,9,3,21,0.19
2013-1-2,43.1,39.6,37.4,37.0,35.1,33.0,96,84,68,30.05,29.95,2,0,6,0.00
2013-1-3,37.7,33.0,28.2,37.0,30.3,21.0,97,90,75,30.13,30.00,9,1,13,0.01
2013-1-4,39.2,30.6,26.5,21.0,16.8,12.0,74,58,34,30.19,30.10,11,4,24,0.00
2013-1-5,48.6,37.5,26.9,28.0,17.9,2.0,73,48,18,30.23,30.10,13,2,23,0.01
2013-1-6,48.4,40.2,33.6,37.0,32.3,26.0,89,74,55,30.08,29.97,12,2,17,0.00
2013-1-7,45.8,35.9,28.5,27.0,25.2,22.0,81,66,46,30.27,30.07,10,2,17,0.00
2013-1-8,49.9,39.9,31.0,43.0,32.7,23.0,93,76,59,30.30,30.22,5,0,9,0.00
2013-1-9,56.7,52.2,46.0,52.0,49.1,44.0,97,89,82,30.38,30.28,8,2,17,0.00
2013-1-10,57.0,52.4,43.7,52.0,49.0,38.0,94,88,76,30.43,30.29,6,2,10,0.00
2013-1-11,56.9,48.1,40.8,56.0,47.4,40.0,98,98,91,30.29,30.10,10,2,13,0.36
2013-1-12,67.6,59.5,55.5,60.0,56.9,54.0,98,91,72,30.14,30.08,10,2,18,0.00
2013-1-13,66.1,59.0,55.7,56.0,54.4,53.0,94,85,70,30.10,30.02,13,4,18,0.00
2013-1-14,57.6,57.1,56.4,57.0,56.2,56.0,98,97,95,30.08,30.04,7,3,13,0.42
2013-1-15,48.3,44.2,40.1,48.0,43.7,40.0,98,98,98,30.10,30.02,5,3,8,1.21
2013-1-16,52.1,51.1,49.6,49.0,48.7,48.0,95,91,88,29.97,29.94,4,1,9,0.56
2013-1-17,51.2,44.5,32.7,49.0,43.5,32.0,97,96,91,30.02,29.76,14,3,28,1.72
2013-1-18,34.0,33.5,33.1,24.0,23.9,23.0,69,68,67,30.34,30.32,3,3,5,0.01
2013-1-19,51.6,38.7,29.5,30.0,22.9,14.0,77,56,24,30.32,30.05,8,2,16,0.00
2013-1-20,50.9,43.6,38.9,33.0,24.6,11.0,65,49,27,30.05,29.99,11,3,22,0.00
2013-1-21,46.7,38.6,25.7,27.0,20.5,10.0,64,49,35,30.00,29.86,15,4,28,0.00
2013-1-22,27.2,22.1,15.9,11.0,1.1,-9.0,62,42,21,30.05,29.85,9,3,27,0.00
2013-1-23,38.8,29.9,19.9,26.0,16.7,3.0,68,58,47,30.14,29.92,13,2,19,0.00
2013-1-24,38.7,30.7,16.8,30.0,14.1,4.0,73,52,32,30.24,29.85,17,4,32,0.00
2013-1-25,39.6,24.8,15.2,37.0,18.8,2.0,94,79,57,30.26,29.93,12,1,18,0.09
2013-1-26,43.4,35.9,30.4,33.0,20.4,9.0,89,57,30,30.20,29.95,13,3,24,0.00
2013-1-27,35.2,29.4,22.4,29.0,24.4,17.0,93,82,54,30.34,30.20,3,1,6,0.02
2013-1-28,60.4,47.2,31.3,49.0,40.3,29.0,90,77,61,30.29,30.16,11,2,15,0.01
2013-1-29,67.3,58.0,50.9,55.0,47.6,39.0,95,70,54,30.17,30.00,11,3,16,0.05
2013-1-30,58.6,56.8,55.3,58.0,55.5,53.0,97,95,92,30.00,29.53,17,6,33,1.94
2013-1-31,32.5,30.9,29.7,21.0,19.2,18.0,68,62,56,29.89,29.83,17,4,31,0.00
2013-2-1,36.4,23.9,16.6,27.0,10.0,-1.0,83,56,39,30.14,29.79,20,4,30,0.00
2013-2-2,40.7,28.6,19.7,30.0,13.0,-12.0,94,57,19,30.14,29.89,13,2,20,0.00
2013-2-3,38.0,31.3,26.4,30.0,24.1,17.0,90,75,58,29.88,29.76,12,4,27,0.02
2013-2-4,48.7,37.0,24.3,25.0,21.1,16.0,73,54,38,29.99,29.87,8,2,17,0.00
2013-2-5,51.8,43.8,35.1,37.0,29.1,21.0,67,57,48,29.94,29.83,13,2,17,0.00
2013-2-6,54.4,45.6,37.3,35.0,24.2,17.0,73,47,24,30.15,29.92,15,2,22,0.00
2013-2-7,41.8,36.3,33.1,37.0,28.3,18.0,97,75,39,30.16,29.93,6,4,12,0.70
2013-2-8,44.7,38.4,30.7,44.0,34.4,23.0,97,86,62,29.99,29.84,11,3,19,0.02
2013-2-9,52.6,39.9,29.3,26.0,21.3,15.0,76,49,33,30.22,29.97,9,1,16,0.00
2013-2-10,45.1,40.2,35.6,41.0,30.5,20.0,96,71,45,30.23,30.07,5,1,10,0.33
2013-2-11,54.4,49.2,42.5,52.0,40.5,17.0,97,76,30,30.08,29.93,14,4,22,0.11
2013-2-12,52.4,42.8,35.2,34.0,23.6,15.0,93,49,30,30.02,29.87,11,2,19,0.12
2013-2-13,45.8,36.3,31.2,44.0,34.3,28.0,97,92,79,29.88,29.60,14,2,20,0.24
2013-2-14,49.6,37.3,27.3,31.0,25.6,19.0,88,65,30,29.96,29.77,9,2,17,0.00
2013-2-15,55.3,41.2,30.5,35.0,29.8,28.0,89,66,36,30.00,29.89,6,2,16,0.00
2013-2-16,33.1,26.9,18.6,27.0,18.4,9.0,87,71,57,29.88,29.72,8,2,19,0.00
2013-2-17,29.9,22.3,15.1,11.0,8.4,5.0,72,56,42,30.08,29.83,10,3,28,0.00
2013-2-18,47.6,36.6,25.1,24.0,19.0,9.0,60,50,37,30.19,30.06,6,2,13,0.00
2013-2-19,49.5,38.1,29.9,40.0,25.8,11.0,94,64,34,30.06,29.80,19,4,31,0.11
2013-2-20,42.4,32.8,25.0,14.0,0.7,-12.0,54,29,13,30.00,29.87,16,4,28,0.00
2013-2-21,54.6,40.6,27.8,31.0,9.6,-16.0,90,31,10,30.11,29.98,7,2,12,0.29
2013-2-22,38.0,33.1,30.1,37.0,32.1,29.0,97,96,90,30.14,29.99,3,0,5,0.27
2013-2-23,48.7,46.0,37.1,47.0,44.2,35.0,98,93,71,30.00,29.80,5,1,12,0.36
2013-2-24,52.4,43.4,35.3,38.0,26.9,16.0,84,56,30,29.96,29.80,11,2,16,0.00
2013-2-25,41.3,34.4,27.6,26.0,22.5,15.0,92,63,35,30.04,29.93,11,3,15,0.00
2013-2-26,36.0,31.0,27.3,35.0,29.9,26.0,97,95,93,29.94,29.54,8,1,14,0.00
2013-2-27,51.5,42.9,33.9,39.0,32.3,28.0,86,67,48,29.73,29.68,11,2,17,0.40
2013-2-28,34.4,30.0,26.9,30.0,23.7,21.0,86,78,67,29.80,29.64,12,2,20,0.00
2013-3-1,33.8,29.2,25.7,27.0,24.8,23.0,91,84,71,29.82,29.75,8,2,13,0.00
2013-3-2,37.9,29.3,21.9,26.0,23.4,17.0,92,79,59,29.79,29.74,8,2,18,0.01
2013-3-3,30.0,22.9,17.8,18.0,14.3,11.0,81,70,57,29.84,29.75,12,3,20,0.00
2013-3-4,49.8,34.2,19.5,25.0,12.6,1.0,73,46,13,29.98,29.83,9,2,15,0.00
2013-3-5,42.8,40.1,31.0,41.0,32.6,25.0,95,76,52,29.98,29.57,8,2,22,1.04
2013-3-6,30.4,25.7,21.5,25.0,21.0,17.0,90,82,74,29.96,29.54,22,5,32,0.00
2013-3-7,44.2,31.4,23.4,31.0,23.9,20.0,90,75,57,30.11,29.94,21,5,24,0.00
2013-3-8,51.5,38.5,26.6,24.0,17.4,2.0,78,44,24,30.19,30.08,10,3,17,0.00
2013-3-9,56.9,45.7,35.7,27.0,21.3,10.0,51,39,29,30.22,30.16,5,1,8,0.00
2013-3-10,59.4,49.5,41.9,34.0,30.5,25.0,60,49,37,30.20,30.11,6,1,9,0.00
2013-3-11,49.5,46.5,44.0,48.0,43.4,34.0,96,89,60,30.13,29.83,8,2,13,0.95
2013-3-12,49.5,44.2,37.2,48.0,35.4,26.0,96,73,44,29.94,29.75,11,3,20,0.31
2013-3-13,41.3,34.3,24.6,29.0,22.2,15.0,75,62,45,30.01,29.93,14,3,22,0.00
2013-3-14,42.7,30.5,20.2,18.0,13.7,10.0,73,52,31,30.13,30.01,12,2,17,0.00
2013-3-15,63.7,48.0,30.8,41.0,30.3,13.0,77,53,27,30.07,29.91,10,2,18,0.00
2013-3-16,71.8,60.7,52.1,46.0,42.9,40.0,65,53,36,29.90,29.78,17,4,24,0.00
2013-3-17,70.0,56.6,39.3,49.0,44.5,38.0,94,66,40,30.00,29.87,7,3,13,0.00
2013-3-18,43.9,35.6,32.0,43.0,34.6,31.0,97,96,94,30.01,29.82,10,2,12,0.54
2013-3-19,50.3,43.3,34.8,44.0,28.8,10.0,97,62,33,30.00,29.80,11,3,27,0.02
2013-3-20,48.9,37.4,28.4,27.0,12.0,8.0,90,37,22,29.99,29.77,8,2,18,0.00
2013-3-21,31.1,25.1,17.7,21.0,10.6,5.0,75,55,43,29.82,29.66,11,3,23,0.00
2013-3-22,46.1,33.4,23.0,27.0,13.9,5.0,62,46,22,29.93,29.82,11,2,17,0.00
2013-3-23,51.6,42.4,35.3,39.0,34.4,28.0,92,74,60,29.94,29.84,3,1,9,0.04
2013-3-24,40.3,36.9,34.3,38.0,35.7,33.0,96,95,85,29.86,29.56,13,5,24,0.65
2013-3-25,32.1,27.9,24.1,22.0,21.0,20.0,89,76,63,29.76,29.50,20,4,35,0.00
2013-3-26,34.8,27.6,22.9,29.0,21.6,18.0,88,78,66,30.04,29.74,10,3,28,0.10
2013-3-27,40.5,30.9,24.0,24.0,21.3,18.0,86,69,46,30.11,30.02,8,2,16,0.02
2013-3-28,46.2,35.7,26.5,25.0,20.1,17.0,75,55,32,30.18,30.08,7,2,17,0.00
2013-3-29,54.0,39.9,32.0,35.0,26.0,17.0,91,61,27,30.21,30.13,7,2,15,0.05
2013-3-30,57.3,46.2,37.7,43.0,38.8,35.0,93,77,56,30.14,30.02,8,1,14,0.61
2013-3-31,61.7,49.8,43.9,51.0,45.4,38.0,96,86,60,30.01,29.83,11,2,21,0.49
2013-4-1,57.9,49.7,43.4,48.0,37.2,30.0,93,63,48,29.94,29.84,14,3,25,0.00
2013-4-2,52.3,41.9,33.7,30.0,23.3,12.0,73,51,22,30.07,29.92,13,2,20,0.00
2013-4-3,55.3,44.6,33.0,26.0,21.1,15.0,49,40,28,30.18,30.05,6,1,10,0.00
2013-4-4,42.8,33.3,29.8,32.0,26.8,16.0,96,80,42,30.17,29.89,9,3,14,0.03
2013-4-5,35.7,33.6,32.5,35.0,32.8,32.0,96,96,96,29.92,29.83,0,0,2,0.01
2013-4-6,62.9,55.5,43.3,36.0,33.6,30.0,59,44,35,30.16,30.10,6,2,9,0.00
2013-4-7,66.1,55.0,45.1,45.0,39.4,33.0,66,57,44,30.16,30.07,10,3,14,0.00
2013-4-8,72.4,60.4,50.3,51.0,47.3,43.0,75,63,46,30.13,30.06,8,2,13,0.00
2013-4-9,79.0,66.6,57.8,56.0,52.6,49.0,74,62,43,30.20,30.10,8,2,13,0.00
2013-4-10,82.3,69.4,59.9,58.0,53.6,50.0,73,59,36,30.12,29.99,8,3,17,0.00
2013-4-11,74.1,64.9,57.5,60.0,54.2,51.0,94,70,48,30.01,29.75,11,3,17,0.70
2013-4-12,67.0,58.8,48.3,60.0,48.3,35.0,95,71,39,29.86,29.67,13,3,25,1.64
2013-4-13,65.9,54.1,46.1,39.0,33.4,27.0,66,48,24,30.02,29.80,19,3,24,0.00
2013-4-14,67.2,58.6,49.9,47.0,37.4,29.0,85,48,33,30.08,29.96,8,2,13,0.00
2013-4-15,53.8,50.9,47.9,53.0,49.7,46.0,97,96,84,30.19,29.97,5,2,11,0.30
2013-4-16,72.6,61.4,50.8,59.0,54.9,50.0,97,81,59,30.26,30.18,6,1,9,0.00
2013-4-17,70.3,62.2,57.4,60.0,56.2,52.0,94,81,66,30.26,30.14,4,1,11,0.44
2013-4-18,69.4,62.2,57.3,59.0,55.9,53.0,93,80,63,30.15,29.99,5,1,12,0.01
2013-4-19,62.5,56.8,39.3,59.0,53.6,33.0,95,89,69,29.98,29.75,13,4,23,0.65
2013-4-20,55.8,44.3,32.9,33.0,27.3,23.0,78,54,32,30.20,29.87,9,2,16,0.00
2013-4-21,55.5,46.7,39.5,36.0,30.2,25.0,72,53,41,30.34,30.20,10,4,15,0.00
2013-4-22,56.2,45.8,37.9,37.0,34.6,29.0,88,66,47,30.32,30.16,8,4,13,0.00
2013-4-23,66.8,52.5,38.9,45.0,37.8,27.0,75,59,41,30.21,30.08,7,3,11,0.00
2013-4-24,67.4,57.7,49.8,55.0,48.8,43.0,90,73,56,30.11,30.01,12,3,18,0.03
2013-4-25,64.7,51.6,37.6,47.0,29.3,6.0,89,52,12,30.24,30.05,9,2,14,0.00
2013-4-26,64.1,54.0,44.0,38.0,31.1,21.0,57,42,34,30.34,30.23,6,2,10,0.00
2013-4-27,53.8,50.6,47.1,49.0,43.6,37.0,95,78,55,30.31,30.20,2,0,4,0.75
2013-4-28,48.4,46.6,44.1,48.0,45.3,42.0,97,95,90,30.20,30.00,4,1,9,2.25
2013-4-29,64.7,55.9,48.0,57.0,52.3,47.0,97,88,68,30.04,29.96,4,1,9,0.08
2013-4-30,67.1,58.1,53.8,59.0,54.2,52.0,97,88,61,30.16,30.00,5,2,11,0.00
2013-5-1,59.6,53.0,49.3,54.0,50.6,48.0,97,92,76,30.25,30.15,9,4,15,0.00
2013-5-2,52.5,50.1,47.5,52.0,49.3,47.0,97,97,97,30.26,30.20,9,4,19,0.41
2013-5-3,50.1,48.5,45.6,49.0,47.7,45.0,97,97,97,30.20,30.07,11,6,20,0.26
2013-5-4,48.3,43.2,39.3,47.0,42.2,38.0,97,96,90,30.07,29.95,14,6,19,0.32
2013-5-5,47.4,42.6,39.7,47.0,42.0,39.0,98,97,97,29.99,29.82,14,8,25,5.03
2013-5-11,70.3,62.3,55.3,57.0,54.5,50.0,85,76,60,29.91,29.86,5,1,12,0.01
2013-5-12,59.5,52.7,45.3,49.0,38.5,29.0,86,61,36,30.00,29.87,11,2,17,0.00
2013-5-13,59.0,48.7,39.7,33.0,29.5,28.0,66,49,31,30.14,30.00,10,2,16,0.00
2013-5-14,72.0,56.9,41.6,50.0,38.8,28.0,71,52,34,30.18,30.07,6,1,12,0.00
2013-5-15,83.3,69.9,58.2,56.0,50.9,49.0,71,53,31,30.11,30.02,14,3,22,0.02
2013-5-16,77.6,68.1,62.8,56.0,51.7,49.0,73,57,42,30.08,30.01,8,1,14,0.00
2013-5-17,78.4,68.1,61.6,61.0,56.1,53.0,73,66,49,30.13,30.05,3,0,8,0.00
2013-5-18,63.5,60.9,58.8,61.0,58.4,54.0,96,91,74,30.14,30.08,2,0,5,1.32
2013-5-19,72.0,63.5,59.4,66.0,61.3,59.0,97,93,77,30.13,30.05,4,0,7,0.40
2013-5-20,76.2,66.4,59.1,68.0,62.3,57.0,97,87,71,30.15,30.06,3,1,8,0.00
2013-5-21,79.5,70.0,61.1,68.0,63.6,59.0,94,81,61,30.10,30.01,5,1,11,0.01
2013-5-22,78.2,64.9,57.2,67.0,61.2,55.0,96,88,68,30.06,29.95,13,1,14,0.68
2013-5-23,76.8,65.0,57.2,63.0,57.0,49.0,97,77,50,30.00,29.91,7,1,15,0.16
2013-5-24,63.9,56.8,49.3,50.0,43.5,35.0,89,63,41,30.18,29.91,7,2,19,0.00
2013-5-25,72.3,58.0,42.9,47.0,37.0,27.0,66,47,31,30.25,30.15,6,1,13,0.00
2013-5-26,70.1,60.2,51.5,51.0,43.9,38.0,76,56,41,30.24,30.16,5,1,12,0.01
2013-5-27,76.3,65.5,55.4,61.0,53.4,46.0,73,66,51,30.25,30.16,3,0,9,0.00
2013-5-28,79.5,67.8,60.0,65.0,58.3,54.0,84,72,55,30.23,30.16,8,1,14,0.00
2013-5-29,79.9,68.3,58.7,67.0,59.7,56.0,90,75,54,30.25,30.18,4,1,9,0.00
2013-5-30,77.5,67.0,60.1,65.0,59.7,57.0,91,78,62,30.29,30.21,6,1,9,0.00
2013-5-31,79.2,69.2,61.8,64.0,60.1,58.0,91,74,54,30.25,30.16,6,1,9,0.00
2013-6-1,80.5,70.3,63.6,65.0,61.2,59.0,89,73,54,30.17,30.08,7,1,13,0.00
2013-6-2,69.9,64.0,61.7,67.0,62.0,60.0,96,93,82,30.10,29.97,8,1,15,1.80
2013-6-3,77.2,67.3,60.4,65.0,59.4,54.0,97,78,54,30.02,29.92,4,1,11,0.02
2013-6-4,72.3,65.1,58.8,65.0,60.3,57.0,96,84,70,30.13,30.01,4,1,9,0.00
2013-6-5,71.3,63.6,60.3,66.0,61.4,59.0,97,92,82,30.14,30.03,5,1,9,0.34
2013-6-6,72.6,65.9,61.1,69.0,64.0,60.0,97,93,85,30.02,29.86,3,0,6,0.19
2013-6-7,75.9,65.2,60.2,66.0,62.0,58.0,97,90,66,29.90,29.76,4,1,14,1.11
2013-6-8,77.0,66.7,58.1,66.0,61.3,57.0,96,84,58,30.14,29.89,6,0,9,0.10
2013-6-9,76.2,65.9,63.3,70.0,63.0,59.0,97,90,77,30.18,30.10,5,1,10,1.95
2013-6-10,72.7,65.9,59.8,65.0,61.7,56.0,97,87,64,30.09,29.96,7,2,17,1.37
2013-6-11,77.8,69.0,61.3,63.0,60.0,58.0,94,74,57,30.07,29.98,6,2,17,0.11
2013-6-12,85.8,74.8,66.2,72.0,64.4,60.0,81,71,54,30.10,30.01,7,2,13,0.00
2013-6-13,85.1,72.4,63.8,68.0,61.7,58.0,88,70,50,30.00,29.80,10,3,22,0.24
2013-6-14,73.6,64.9,56.8,61.0,53.7,48.0,90,68,49,30.09,29.89,5,2,16,0.00
2013-6-15,80.0,69.7,57.9,62.0,54.6,46.0,78,60,44,30.17,30.09,4,0,10,0.00
2013-6-16,81.1,70.3,62.5,66.0,60.5,56.0,83,72,51,30.17,30.09,5,1,9,0.00
2013-6-17,77.9,69.0,63.4,69.0,64.3,61.0,96,85,67,30.10,30.02,5,1,9,0.41
2013-6-18,75.6,66.7,61.1,68.0,63.5,59.0,96,89,74,30.02,29.88,4,1,18,0.09
2013-6-19,73.4,66.3,59.0,66.0,60.2,55.0,92,81,66,30.17,29.98,2,0,7,0.03
2013-6-20,73.8,65.7,61.5,68.0,62.0,58.0,96,88,76,30.26,30.16,3,0,5,0.00
2013-6-21,75.5,66.4,61.0,66.0,61.1,59.0,96,84,61,30.29,30.23,4,0,7,0.00
2013-6-22,77.1,67.9,58.2,64.0,59.6,56.0,93,76,58,30.27,30.18,3,0,9,0.00
2013-6-23,78.1,68.4,62.4,69.0,63.1,59.0,95,84,64,30.26,30.19,2,0,4,1.04
2013-6-24,82.1,70.6,62.8,70.0,64.8,61.0,96,83,61,30.26,30.16,5,1,9,1.28
2013-6-25,81.1,70.9,64.7,73.0,65.8,63.0,96,84,62,30.20,30.10,5,1,11,0.00
2013-6-26,81.9,72.5,65.2,70.0,65.7,62.0,93,80,61,30.11,30.01,7,1,10,0.00
2013-6-27,80.1,70.5,61.8,70.0,64.5,58.0,92,82,69,30.03,29.87,10,2,17,0.23
2013-6-28,81.9,71.6,64.3,67.0,64.0,59.0,92,78,57,29.90,29.74,8,3,19,0.18
2013-6-29,79.6,70.6,63.0,64.0,59.7,56.0,86,70,49,29.81,29.74,9,1,10,0.00
2013-6-30,80.9,69.3,64.7,68.0,61.2,55.0,95,76,57,29.90,29.78,3,0,6,0.71
2013-7-1,75.2,66.8,61.7,69.0,64.1,60.0,96,91,77,30.02,29.89,4,0,8,2.33
2013-7-2,76.4,67.3,62.0,71.0,64.9,61.0,96,92,76,30.18,30.01,2,0,4,0.00
2013-7-3,71.6,64.9,59.7,69.0,63.8,58.0,97,96,92,30.24,30.16,4,0,12,4.74
2013-7-4,69.0,64.1,60.2,68.0,63.1,59.0,97,96,92,30.26,30.20,2,0,10,2.30
2013-7-5,78.5,68.2,63.6,71.0,65.5,63.0,97,91,72,30.28,30.21,4,0,6,0.30
2013-7-6,75.7,68.3,63.7,71.0,66.2,63.0,97,93,80,30.26,30.18,3,0,8,1.13
2013-7-7,78.5,69.6,65.1,72.0,66.4,64.0,97,90,74,30.22,30.15,3,1,8,0.15
2013-7-8,79.3,70.5,65.3,70.0,66.4,63.0,95,87,72,30.25,30.18,4,1,8,0.00
2013-7-9,82.9,73.3,66.1,73.0,67.4,63.0,96,82,65,30.23,30.15,6,1,9,0.01
2013-7-10,84.5,71.5,64.9,74.0,66.7,63.0,95,85,68,30.20,30.04,5,1,10,0.68
2013-7-11,75.4,69.7,64.8,70.0,66.4,63.0,96,89,77,30.04,29.97,5,1,8,0.00
2013-7-12,77.8,68.5,59.0,71.0,65.5,58.0,96,90,75,30.08,29.96,5,1,8,0.21
2013-7-13,66.9,63.2,59.2,66.0,62.4,58.0,98,97,97,30.16,30.06,6,3,11,0.08
2013-7-14,69.0,65.9,64.3,69.0,65.6,64.0,98,98,97,30.32,30.15,8,1,14,4.47
2013-7-15,73.7,67.9,65.4,72.0,66.4,65.0,98,95,80,30.37,30.32,4,1,8,0.08
2013-7-16,83.8,74.7,66.5,72.0,65.9,61.0,94,75,57,30.37,30.32,1,0,5,0.00
2013-7-17,83.6,73.4,66.7,74.0,66.3,62.0,95,79,63,30.34,30.24,6,0,9,0.23
2013-7-18,83.0,75.1,67.9,74.0,68.2,62.0,89,79,67,30.27,30.17,1,0,5,0.00
2013-7-19,83.3,74.0,67.6,73.0,68.4,65.0,93,83,67,30.20,30.09,6,0,7,0.00
2013-7-20,80.0,71.0,67.1,73.0,67.2,65.0,95,88,66,30.12,30.03,7,1,9,0.04
2013-7-21,80.0,70.1,66.0,72.0,66.1,63.0,95,87,67,30.09,30.02,7,1,11,1.52
2013-7-22,81.1,71.5,64.7,73.0,65.9,62.0,94,83,65,30.07,29.93,6,2,12,0.24
2013-7-23,80.3,70.3,64.8,68.0,64.1,62.0,93,81,61,30.00,29.90,7,2,16,0.01
2013-7-24,82.5,73.2,67.1,68.0,64.4,61.0,88,75,58,29.95,29.86,6,1,15,0.00
2013-7-25,78.5,68.5,62.9,70.0,64.0,60.0,95,85,74,30.10,29.93,3,0,6,0.00
2013-7-26,80.4,69.0,62.1,70.0,64.4,59.0,94,85,68,30.15,30.09,2,0,5,0.00
2013-7-27,75.2,67.1,63.4,70.0,65.1,61.0,97,93,72,30.09,29.98,5,1,11,2.69
2013-7-28,69.2,64.1,61.9,64.0,62.4,61.0,97,94,74,30.05,29.98,1,0,5,0.02
2013-9-6,63.9,63.2,62.5,60.0,59.2,59.0,88,87,85,30.17,30.17,1,0,2,0.00
2013-9-7,79.1,67.5,57.4,66.0,60.4,56.0,96,79,58,30.17,30.06,6,0,10,0.00
2013-9-8,77.6,70.2,64.9,67.0,63.0,58.0,87,78,64,30.09,30.03,3,0,7,0.00
2013-9-9,78.3,70.7,66.4,70.0,64.5,61.0,88,81,71,30.21,30.09,3,0,5,0.00
2013-9-10,84.0,71.6,64.4,71.0,64.6,60.0,89,79,64,30.29,30.21,3,0,7,0.00
2013-9-11,80.7,71.6,66.0,71.0,65.3,60.0,89,80,68,30.28,30.17,4,1,8,0.00
2013-9-12,81.2,70.6,62.1,69.0,64.6,59.0,92,81,63,30.16,29.94,8,1,16,0.16
2013-9-13,72.2,64.0,54.7,61.0,55.3,46.0,92,74,57,29.95,29.89,5,1,15,0.03
2013-9-14,68.2,57.9,48.5,58.0,50.8,45.0,92,78,63,30.14,29.95,3,0,8,0.00
2013-9-15,69.7,60.7,54.2,62.0,56.4,51.0,92,85,73,30.22,30.14,3,0,6,0.00
2013-9-16,76.5,66.6,59.5,62.0,58.0,54.0,90,75,46,30.20,30.14,8,1,9,0.00
2013-9-17,63.0,58.1,54.2,57.0,54.0,51.0,92,86,77,30.30,30.20,6,2,10,0.00
2013-9-18,61.5,56.4,51.4,57.0,53.6,50.0,95,90,80,30.27,30.18,2,0,4,0.00
2013-9-19,71.9,63.4,56.7,66.0,60.5,55.0,96,90,78,30.20,30.13,4,0,7,0.00
2013-9-20,77.6,67.9,61.9,68.0,62.7,60.0,94,84,67,30.13,30.00,4,1,8,0.00
2013-9-21,64.6,61.6,56.0,63.0,59.6,55.0,96,93,86,30.00,29.78,8,1,21,1.30
2013-9-22,70.1,60.3,52.9,60.0,55.0,50.0,96,83,63,29.95,29.80,5,0,10,0.01
2013-9-23,65.4,58.6,52.2,59.0,54.7,50.0,94,87,75,30.08,29.95,3,0,5,0.00
2013-9-24,69.2,61.1,53.6,63.0,57.1,51.0,94,86,76,30.09,29.98,3,0,4,0.00
2013-9-25,59.0,57.1,54.8,57.0,56.1,54.0,97,96,93,29.98,29.91,2,0,6,1.07
2013-9-26,62.9,56.7,51.4,59.0,53.7,49.0,97,89,73,30.08,29.91,5,0,5,0.01
2013-9-27,68.7,59.1,51.8,61.0,54.2,49.0,93,84,71,30.19,30.08,3,0,6,0.00
2013-9-28,62.9,56.6,52.6,57.0,53.8,51.0,96,90,79,30.24,30.17,2,0,8,0.00
2013-9-29,65.8,57.0,50.2,58.0,52.8,48.0,96,86,71,30.18,30.06,3,0,7,0.00
2013-9-30,66.5,58.7,52.2,59.0,54.9,51.0,96,87,74,30.10,30.04,1,0,4,0.00
2013-10-1,73.5,63.4,55.9,62.0,55.7,53.0,91,77,53,30.17,30.08,3,0,7,0.00
2013-10-2,74.1,64.7,58.6,62.0,57.4,53.0,85,77,59,30.19,30.12,5,0,7,0.00
2013-10-3,73.6,65.9,61.1,66.0,58.8,56.0,83,78,64,30.17,30.12,4,0,8,0.00
2013-10-4,77.3,67.3,61.4,66.0,60.6,57.0,88,79,63,30.20,30.13,5,0,9,0.00
2013-10-5,77.9,68.9,62.7,67.0,61.3,58.0,86,77,63,30.19,30.11,2,0,5,0.00
2013-10-6,78.1,67.5,60.9,66.0,60.9,58.0,90,80,64,30.12,29.96,4,0,6,0.00
2013-10-7,68.0,60.0,52.2,61.0,55.2,46.0,96,84,67,30.02,29.87,6,1,12,1.64
2013-10-8,59.9,52.2,48.2,51.0,45.7,39.0,88,79,67,30.19,30.01,8,2,15,0.00
2013-10-9,53.9,48.3,45.3,45.0,41.0,37.0,89,76,63,30.21,30.13,4,2,8,0.00
2013-10-10,70.0,59.0,48.7,55.0,49.1,43.0,82,71,55,30.13,30.03,9,1,9,0.00
2013-10-11,71.0,61.5,55.0,54.0,50.6,49.0,83,69,46,30.04,29.99,4,1,9,0.04
2013-10-12,67.6,60.6,56.6,58.0,52.8,48.0,93,76,63,30.12,30.01,4,0,11,0.00
2013-10-13,66.1,59.7,55.5,61.0,57.4,54.0,97,92,80,30.22,30.12,4,1,9,0.15
2013-10-14,58.7,56.6,54.5,58.0,56.0,54.0,98,98,97,30.23,30.16,6,2,12,0.13
2013-10-15,55.6,53.2,50.9,55.0,52.8,50.0,98,98,97,30.19,30.08,6,1,11,0.04
2013-10-16,62.9,56.0,49.9,59.0,53.5,48.0,98,92,77,30.09,29.99,2,0,8,0.00
2013-10-17,64.0,58.2,53.8,62.0,56.2,52.0,97,93,86,29.99,29.88,5,1,11,0.13
2013-10-18,63.3,53.8,45.7,55.0,50.0,43.0,97,87,71,30.02,29.92,11,1,14,0.02
2013-10-19,60.5,53.5,47.3,53.0,48.2,41.0,98,83,56,29.98,29.86,5,1,14,0.00
2013-10-20,57.6,47.7,38.9,45.0,39.5,27.0,85,74,44,30.06,29.92,6,1,14,0.00
2013-10-21,63.9,52.1,44.1,51.0,46.4,39.0,93,82,60,30.09,29.99,8,1,11,0.00
2013-10-22,63.3,55.1,51.0,51.0,45.6,42.0,90,71,51,30.00,29.82,7,2,12,0.00
2013-10-23,50.6,43.4,32.9,44.0,33.8,25.0,85,70,50,29.95,29.74,16,3,21,0.00
2013-10-24,48.1,38.7,32.2,33.0,29.2,24.0,80,69,53,30.08,29.93,15,3,21,0.00
2013-10-25,44.0,34.8,26.6,31.0,24.5,21.0,84,67,47,30.23,30.09,13,1,19,0.00
2013-10-26,52.3,40.4,28.8,42.0,27.5,18.0,78,62,27,30.22,30.00,9,1,16,0.00
2013-10-27,61.3,52.1,43.2,47.0,42.1,36.0,83,70,53,30.09,29.99,7,2,16,0.00
2013-10-28,57.7,52.6,49.9,52.0,48.5,46.0,92,86,76,30.22,30.08,3,0,9,0.09
2013-10-29,63.2,54.9,49.2,54.0,48.7,47.0,94,80,68,30.30,30.20,3,0,6,0.00
2013-10-30,69.5,59.6,53.0,55.0,51.8,49.0,90,77,54,30.26,30.17,5,1,11,0.00
2013-10-31,60.1,58.2,56.1,57.0,53.2,51.0,95,83,73,30.18,29.91,7,1,11,0.01
2013-11-1,70.3,60.2,52.0,58.0,53.0,41.0,96,79,35,29.87,29.71,10,2,21,0.10
2013-11-2,56.3,48.6,41.4,44.0,37.5,32.0,78,66,48,29.94,29.76,10,2,17,0.00
2013-11-3,53.4,43.8,37.5,35.0,31.9,27.0,85,64,45,30.27,29.94,6,1,12,0.00
2013-11-4,49.2,41.3,35.2,30.0,28.1,26.0,76,61,43,30.39,30.27,11,3,15,0.00
2013-11-5,49.7,40.4,31.4,41.0,30.2,25.0,88,69,39,30.41,30.33,10,3,11,0.00
2013-11-6,58.9,50.7,43.7,51.0,47.7,41.0,97,90,72,30.33,30.11,4,1,8,0.00
2013-11-7,55.7,48.4,35.8,53.0,42.9,26.0,95,82,59,30.11,29.99,10,2,21,0.04
2013-11-8,49.7,39.9,32.6,26.0,19.1,13.0,71,46,25,30.20,30.06,8,2,16,0.00
2013-11-9,52.6,43.6,34.9,28.0,21.9,10.0,55,43,20,30.23,30.12,8,1,15,0.00
2013-11-10,59.0,50.2,43.7,33.0,25.1,7.0,58,39,17,30.18,30.10,13,3,20,0.00
2013-11-11,54.7,46.9,42.6,28.0,20.3,2.0,51,36,16,30.24,30.07,10,2,14,0.00
2013-11-12,52.2,39.5,19.3,35.0,21.2,9.0,67,50,27,30.26,30.00,11,2,18,0.00
2013-11-13,40.6,29.4,17.9,15.0,10.1,3.0,68,46,27,30.34,30.24,7,1,12,0.00
2013-11-14,53.5,42.5,33.6,20.0,11.9,5.0,41,29,19,30.30,30.21,8,2,11,0.00
2013-11-15,52.3,46.0,41.2,47.0,34.1,-1.0,97,70,16,30.22,30.12,5,1,13,0.14
2013-11-16,50.5,48.2,46.5,50.0,47.6,46.0,98,98,96,30.20,30.13,3,0,5,0.02
2013-11-17,57.2,53.1,50.2,57.0,52.7,50.0,99,98,96,30.16,29.89,7,1,16,0.47
2013-11-18,59.6,51.6,40.1,58.0,37.4,25.0,99,61,35,29.97,29.85,10,2,19,0.04
2013-11-19,48.9,40.6,34.8,27.0,21.1,18.0,62,46,34,30.14,29.92,12,3,20,0.00
2013-11-20,41.1,34.6,28.2,27.0,24.4,23.0,83,67,49,30.32,30.15,11,6,17,0.00
2013-11-21,47.6,37.6,33.0,47.0,32.8,26.0,98,83,74,30.36,30.29,8,2,12,0.13
2013-11-22,62.0,55.3,47.3,56.0,53.1,47.0,98,92,79,30.31,30.11,5,2,14,0.07
2013-11-23,52.7,42.2,27.2,51.0,36.2,17.0,94,80,58,30.10,30.04,9,3,19,0.01
2013-11-24,33.3,25.0,18.2,17.0,5.9,-2.0,66,46,26,30.30,30.08,6,1,11,0.00
2013-11-25,31.8,24.8,18.6,25.0,6.9,-2.0,90,48,37,30.31,30.16,3,1,6,0.00
2013-11-26,46.1,37.4,25.5,46.0,36.6,23.0,98,97,85,30.16,29.61,10,2,15,2.51
2013-11-27,41.3,27.4,17.7,41.0,23.5,10.0,98,85,67,30.02,29.53,17,3,24,0.05
2013-11-28,40.1,28.5,16.6,21.0,14.9,2.0,84,59,33,30.30,30.02,9,1,14,0.00
2013-11-29,49.4,38.3,29.7,24.0,17.1,3.0,70,44,26,30.43,30.29,13,2,15,0.00
2013-11-30,37.9,30.2,22.7,22.0,20.1,17.0,87,67,52,30.44,30.23,9,2,13,0.00
2013-12-1,53.7,43.6,33.6,35.0,30.8,16.0,76,62,41,30.22,29.96,11,2,14,0.00
2013-12-2,52.4,43.6,38.4,38.0,33.6,31.0,82,68,55,29.95,29.79,5,0,6,0.00
2013-12-3,55.1,46.3,41.6,46.0,43.5,36.0,97,90,69,29.93,29.82,5,1,11,0.00
2013-12-4,55.3,50.5,46.8,54.0,49.7,46.0,98,97,90,30.06,29.92,3,1,12,0.00
2013-12-5,63.6,58.5,54.2,61.0,57.2,53.0,98,95,86,30.09,30.01,11,1,16,0.38
2013-12-6,65.3,61.8,53.0,61.0,59.0,52.0,98,90,81,30.04,29.97,11,4,21,0.58
2013-12-7,56.1,45.9,35.8,53.0,43.2,35.0,97,90,79,30.27,30.00,11,3,16,0.00
2013-12-8,35.7,31.0,28.7,34.0,30.3,28.0,98,97,95,30.26,30.11,12,2,18,0.40
2013-12-9,56.3,47.7,30.1,56.0,46.7,29.0,99,96,81,30.11,29.98,11,2,17,0.42
2013-12-10,49.9,37.5,26.2,49.0,31.6,12.0,98,80,54,30.16,29.86,10,2,26,0.28
2013-12-11,46.7,35.6,26.4,20.0,10.0,-1.0,58,36,22,30.27,30.16,11,2,19,0.00
2013-12-12,34.5,28.8,23.6,15.0,8.0,-1.0,64,43,23,30.24,30.12,12,3,19,0.00
2013-12-13,44.5,36.1,28.8,19.0,11.5,1.0,50,37,26,30.21,30.13,10,1,13,0.00
2013-12-14,43.7,35.6,30.3,43.0,29.7,18.0,98,81,47,30.15,29.73,11,1,11,0.68
2013-12-15,44.3,32.9,26.3,44.0,29.3,23.0,98,87,75,29.98,29.70,10,3,21,0.01
2013-12-16,48.9,40.3,29.8,28.0,24.3,22.0,80,55,40,30.05,29.98,10,3,19,0.00
2013-12-17,54.6,44.1,32.3,31.0,27.2,20.0,68,53,36,30.05,29.88,11,3,23,0.00
2013-12-18,42.0,34.3,25.8,19.0,5.2,-10.0,63,34,12,30.17,29.95,10,3,16,0.00
2013-12-19,60.6,49.9,42.0,24.0,19.5,9.0,39,30,23,30.21,30.14,12,3,17,0.00
2013-12-20,61.0,49.9,43.7,47.0,30.9,20.0,87,51,28,30.15,30.08,10,2,17,0.00
2013-12-21,59.7,55.7,50.8,59.0,54.2,47.0,98,94,88,30.10,30.00,11,4,19,0.29
2013-12-22,60.6,56.3,53.5,59.0,55.3,52.0,99,96,88,30.05,29.97,8,2,19,2.71
2013-12-23,54.8,45.3,30.1,55.0,43.7,29.0,99,94,85,30.08,29.98,14,2,18,0.35
2013-12-24,30.2,25.3,19.3,29.0,19.4,13.0,94,78,61,30.23,30.05,10,2,19,0.00
2013-12-25,31.0,23.7,16.1,14.0,10.5,1.0,87,59,42,30.30,30.18,4,1,7,0.00
2013-12-26,43.7,35.3,25.3,24.0,16.9,12.0,61,48,36,30.22,30.14,12,2,18,0.00
2013-12-27,44.4,36.9,29.5,23.0,19.9,18.0,65,51,41,30.31,30.21,3,0,6,0.00
2013-12-28,51.1,43.4,36.6,38.0,24.7,13.0,96,51,31,30.28,30.04,9,2,13,0.34
2013-12-29,47.7,40.1,33.8,44.0,37.0,31.0,98,89,76,30.03,29.75,10,3,20,0.64
2013-12-30,42.8,38.4,33.2,36.0,33.4,24.0,89,82,69,30.02,29.88,12,2,18,0.00
2013-12-31,37.1,32.6,28.7,23.0,15.5,12.0,68,50,37,30.23,30.01,17,2,24,0.00
2014-1-1,43.5,36.5,32.4,26.0,19.2,6.0,76,51,28,30.23,30.02,6,1,8,0.00
2014-1-2,45.5,36.1,14.7,44.0,31.4,10.0,96,83,61,30.02,29.62,10,3,20,0.22